Погода в Талдоме

Россия / Московская область     56°43′51″N   37°31′39″E
темп.,
°C
ветер,
м/с
пор.,
м/с
влажн.,
%
обл.,
%
осадки,
мм/ч
давл.,
гПа
погр.,
м
20 апреля, вт
вт2000:00+4в4105554 0.0 1025678
03:00+3в41058100 0.0 1025639
06:00+3в397169 0.0 1024621
09:00+5в475690 0.0 1024717
12:00+9вюв5851100 0.0 10221215
15:00+6вюв5970100 0.4 10221097
18:00+5всв41090100 1.8 1019917
21:00+5в51294100 1.9 10171099
21 апреля, ср
ср2100:00+4в51190100 0.4 1013992
03:00+3всв51397100 2.1 1009799
06:00+1св41197100 3.6 1005605
09:00+1ссв3799100 6.1 1002256
12:00+2зюз2499100 1.3 1001239
15:00+3юз4787100 1.3 1003871
18:00+3юз4887100 0.1 1005909
21:00+3юз4990100 0.1 1008647
22 апреля, чт
чт2200:00+3ююз41094100 0.1 1009679
03:00+4ююз3993100 0.1 1010521
06:00+4ююз31092100 0.0 1011380
09:00+6ююз4886100 0.1 1012505
12:00+10юз4665100 0.4 10131189
15:00+12ююз465613 0.8 10131567
18:00+11ю376597 0.1 1014351
21:00+6ю399048 0.1 1015187
23 апреля, пт
пт2300:00+6ююв399369 0.0 1014217
03:00+6ююв311956 0.0 1014289
06:00+6ююв4119553 0.0 1013342
09:00+12ююв5127356 0.0 1013595
12:00+16ю6115569 0.1 10121520
15:00+16ююз5959100 1.6 10111596
18:00+13ю5126894 2.8 10111091
21:00+10ююз3789100 3.9 1012337
24 апреля, сб
сб2400:00+7ссз009470 0.1 1011101
03:00+7ссз1395100 1.6 1010197
06:00+7з2298100 1.6 1008335
09:00+2зюз3799100 7.0 1010373
12:00+4зюз3696100 1.8 1011616
15:00+8зюз2370100 2.4 10101070
18:00+7ю1278100 0.5 101067
21:00+4ююз2283100 0.6 101028